����������;��������(kWh)
2017-10-23 00:00;77,65
2017-10-23 00:15;80,35
2017-10-23 00:30;81,7
2017-10-23 00:45;79,4
2017-10-23 01:00;82,1
2017-10-23 01:15;79,3
2017-10-23 01:30;80,05
2017-10-23 01:45;80,85
2017-10-23 02:00;78,2
2017-10-23 02:15;81,6
2017-10-23 02:30;80,4
2017-10-23 02:45;81,2
2017-10-23 03:00;80,05
2017-10-23 03:15;79,65
2017-10-23 03:30;81,05
2017-10-23 03:45;79,1
2017-10-23 04:00;79,6
2017-10-23 04:15;80,75
2017-10-23 04:30;78,9
2017-10-23 04:45;80
2017-10-23 05:00;78,1
2017-10-23 05:15;80,8
2017-10-23 05:30;82,85
2017-10-23 05:45;80,85
2017-10-23 06:00;86,05
2017-10-23 06:15;83
2017-10-23 06:30;85,4
2017-10-23 06:45;89,1
2017-10-23 07:00;87,1
2017-10-23 07:15;86,75
2017-10-23 07:30;88,75
2017-10-23 07:45;90,4
2017-10-23 08:00;93,05
2017-10-23 08:15;97
2017-10-23 08:30;98,15
2017-10-23 08:45;108,8
2017-10-23 09:00;109,55
2017-10-23 09:15;114,45
2017-10-23 09:30;121,45
2017-10-23 09:45;120,15
2017-10-23 10:00;125,65
2017-10-23 10:15;127,75
2017-10-23 10:30;134,35
2017-10-23 10:45;136,75
2017-10-23 11:00;139,5
2017-10-23 11:15;143,85
2017-10-23 11:30;146,3
2017-10-23 11:45;146,35
2017-10-23 12:00;145,45
2017-10-23 12:15;154,6
2017-10-23 12:30;157
2017-10-23 12:45;154,95
2017-10-23 13:00;156,7
2017-10-23 13:15;157,85
2017-10-23 13:30;167,6
2017-10-23 13:45;159,45
2017-10-23 14:00;157,25
2017-10-23 14:15;157,3
2017-10-23 14:30;154,1
2017-10-23 14:45;153,8
2017-10-23 15:00;147,35
2017-10-23 15:15;148,1
2017-10-23 15:30;140,7
2017-10-23 15:45;138,25
2017-10-23 16:00;132,65
2017-10-23 16:15;137,4
2017-10-23 16:30;133,75
2017-10-23 16:45;128,65
2017-10-23 17:00;129,55
2017-10-23 17:15;123,7
2017-10-23 17:30;119,4
2017-10-23 17:45;121,1
2017-10-23 18:00;124,2
2017-10-23 18:15;116,9
2017-10-23 18:30;118,65
2017-10-23 18:45;118,55
2017-10-23 19:00;119,7
2017-10-23 19:15;124,8
2017-10-23 19:30;118,2
2017-10-23 19:45;116,4
2017-10-23 20:00;113,15
2017-10-23 20:15;111,6
2017-10-23 20:30;107,75
2017-10-23 20:45;103,85
2017-10-23 21:00;101,55
2017-10-23 21:15;98,95
2017-10-23 21:30;100,6
2017-10-23 21:45;96,65
2017-10-23 22:00;91,35
2017-10-23 22:15;91,95
2017-10-23 22:30;89,4
2017-10-23 22:45;88,1
2017-10-23 23:00;88,05
2017-10-23 23:15;84,35
2017-10-23 23:30;81,1
2017-10-23 23:45;82,4
2017-10-24 00:00;80,4
2017-10-24 00:15;86,1
2017-10-24 00:30;81,9
2017-10-24 00:45;81
2017-10-24 01:00;82,05
2017-10-24 01:15;80,7
2017-10-24 01:30;83,35
2017-10-24 01:45;84,5
2017-10-24 02:00;83,9
2017-10-24 02:15;84,85
2017-10-24 02:30;81,95
2017-10-24 02:45;84,05
2017-10-24 03:00;82,25
2017-10-24 03:15;84,45
2017-10-24 03:30;82,35
2017-10-24 03:45;82
2017-10-24 04:00;84,8
2017-10-24 04:15;81,4
2017-10-24 04:30;84,2
2017-10-24 04:45;81,25
2017-10-24 05:00;83,2
2017-10-24 05:15;84,9
2017-10-24 05:30;85,8
2017-10-24 05:45;88,6
2017-10-24 06:00;88,3
2017-10-24 06:15;82,75
2017-10-24 06:30;84,7
2017-10-24 06:45;85,35
2017-10-24 07:00;88,75
2017-10-24 07:15;87,75
2017-10-24 07:30;87,15
2017-10-24 07:45;96,9
2017-10-24 08:00;96,15
2017-10-24 08:15;98
2017-10-24 08:30;105,85
2017-10-24 08:45;111,6
2017-10-24 09:00;121,3
2017-10-24 09:15;120,25
2017-10-24 09:30;125,45
2017-10-24 09:45;130,5
2017-10-24 10:00;130,5
2017-10-24 10:15;137,35
2017-10-24 10:30;137,25
2017-10-24 10:45;141,75
2017-10-24 11:00;148,9
2017-10-24 11:15;141,05
2017-10-24 11:30;139,2
2017-10-24 11:45;143,65
2017-10-24 12:00;139,75
2017-10-24 12:15;145,9
2017-10-24 12:30;157,05
2017-10-24 12:45;150,95
2017-10-24 13:00;149,3
2017-10-24 13:15;146,1
2017-10-24 13:30;146,8
2017-10-24 13:45;146,45
2017-10-24 14:00;142,8
2017-10-24 14:15;142,95
2017-10-24 14:30;145,65
2017-10-24 14:45;146,3
2017-10-24 15:00;144,15
2017-10-24 15:15;140,8
2017-10-24 15:30;141
2017-10-24 15:45;138,95
2017-10-24 16:00;134,95
2017-10-24 16:15;130,95
2017-10-24 16:30;131,8
2017-10-24 16:45;130,9
2017-10-24 17:00;129,75
2017-10-24 17:15;124,25
2017-10-24 17:30;118,25
2017-10-24 17:45;121,5
2017-10-24 18:00;122,55
2017-10-24 18:15;123,85
2017-10-24 18:30;118,55
2017-10-24 18:45;124,25
2017-10-24 19:00;124,1
2017-10-24 19:15;120,75
2017-10-24 19:30;116,15
2017-10-24 19:45;117
2017-10-24 20:00;109,85
2017-10-24 20:15;110,6
2017-10-24 20:30;104,8
2017-10-24 20:45;105,25
2017-10-24 21:00;102,4
2017-10-24 21:15;96,15
2017-10-24 21:30;97
2017-10-24 21:45;91,95
2017-10-24 22:00;86,9
2017-10-24 22:15;85,4
2017-10-24 22:30;85,75
2017-10-24 22:45;81,95
2017-10-24 23:00;80
2017-10-24 23:15;76
2017-10-24 23:30;73,95
2017-10-24 23:45;76,1
2017-10-25 00:00;74,75
2017-10-25 00:15;77,65
2017-10-25 00:30;74,7
2017-10-25 00:45;74,15
2017-10-25 01:00;74,6
2017-10-25 01:15;73,2
2017-10-25 01:30;73,85
2017-10-25 01:45;74,7
2017-10-25 02:00;72,35
2017-10-25 02:15;75,15
2017-10-25 02:30;73,55
2017-10-25 02:45;72,05
2017-10-25 03:00;72,1
2017-10-25 03:15;70,3
2017-10-25 03:30;72,75
2017-10-25 03:45;71,05
2017-10-25 04:00;71,05
2017-10-25 04:15;71,25
2017-10-25 04:30;70,15
2017-10-25 04:45;72,25
2017-10-25 05:00;70,45
2017-10-25 05:15;74,75
2017-10-25 05:30;72,7
2017-10-25 05:45;74,7
2017-10-25 06:00;77,6
2017-10-25 06:15;74,4
2017-10-25 06:30;79,3
2017-10-25 06:45;84,2
2017-10-25 07:00;81,55
2017-10-25 07:15;82,25
2017-10-25 07:30;84,05
2017-10-25 07:45;83,65
2017-10-25 08:00;84,25
2017-10-25 08:15;86,55
2017-10-25 08:30;91,5
2017-10-25 08:45;99,05
2017-10-25 09:00;108,15
2017-10-25 09:15;112,6
2017-10-25 09:30;115,15
2017-10-25 09:45;120,2
2017-10-25 10:00;119,65
2017-10-25 10:15;124,45
2017-10-25 10:30;130,4
2017-10-25 10:45;127,45
2017-10-25 11:00;136,2
2017-10-25 11:15;139,7
2017-10-25 11:30;142,55
2017-10-25 11:45;142,65
2017-10-25 12:00;143,15
2017-10-25 12:15;144,45
2017-10-25 12:30;146,35
2017-10-25 12:45;149,3
2017-10-25 13:00;149,4
2017-10-25 13:15;148,3
2017-10-25 13:30;149,7
2017-10-25 13:45;147,45
2017-10-25 14:00;142,35
2017-10-25 14:15;141,2
2017-10-25 14:30;139,3
2017-10-25 14:45;138,15
2017-10-25 15:00;134,6
2017-10-25 15:15;131,45
2017-10-25 15:30;129,3
2017-10-25 15:45;127,4
2017-10-25 16:00;123,45
2017-10-25 16:15;121,65
2017-10-25 16:30;119,95
2017-10-25 16:45;121,35
2017-10-25 17:00;118,6
2017-10-25 17:15;113,15
2017-10-25 17:30;115,6
2017-10-25 17:45;117,65
2017-10-25 18:00;119,2
2017-10-25 18:15;116,55
2017-10-25 18:30;114,2
2017-10-25 18:45;118,95
2017-10-25 19:00;123,15
2017-10-25 19:15;117,5
2017-10-25 19:30;116,8
2017-10-25 19:45;109,6
2017-10-25 20:00;108,95
2017-10-25 20:15;106,35
2017-10-25 20:30;102,95
2017-10-25 20:45;102,65
2017-10-25 21:00;95,8
2017-10-25 21:15;95,6
2017-10-25 21:30;96,05
2017-10-25 21:45;90,7
2017-10-25 22:00;90,8
2017-10-25 22:15;86,25
2017-10-25 22:30;87,55
2017-10-25 22:45;85,5
2017-10-25 23:00;85,3
2017-10-25 23:15;84,05
2017-10-25 23:30;82,95
2017-10-25 23:45;84
2017-10-26 00:00;81
2017-10-26 00:15;82,2
2017-10-26 00:30;80,2
2017-10-26 00:45;78,75
2017-10-26 01:00;80,1
2017-10-26 01:15;78,25
2017-10-26 01:30;80,7
2017-10-26 01:45;77,5
2017-10-26 02:00;78
2017-10-26 02:15;79,15
2017-10-26 02:30;78,75
2017-10-26 02:45;77,65
2017-10-26 03:00;78,4
2017-10-26 03:15;77,35
2017-10-26 03:30;78,5
2017-10-26 03:45;78,4
2017-10-26 04:00;77,3
2017-10-26 04:15;78,35
2017-10-26 04:30;76,35
2017-10-26 04:45;77,1
2017-10-26 05:00;77,85
2017-10-26 05:15;74,45
2017-10-26 05:30;76,15
2017-10-26 05:45;75,85
2017-10-26 06:00;79,1
2017-10-26 06:15;79,15
2017-10-26 06:30;80,25
2017-10-26 06:45;81,4
2017-10-26 07:00;82,3
2017-10-26 07:15;83,1
2017-10-26 07:30;87,85
2017-10-26 07:45;90
2017-10-26 08:00;88,6
2017-10-26 08:15;90,7
2017-10-26 08:30;96,85
2017-10-26 08:45;106,95
2017-10-26 09:00;113,65
2017-10-26 09:15;120,9
2017-10-26 09:30;96,9
2017-10-26 09:45;129,6
2017-10-26 10:00;129,7
2017-10-26 10:15;136,3
2017-10-26 10:30;142,35
2017-10-26 10:45;145,25
2017-10-26 11:00;145,6
2017-10-26 11:15;146,45
2017-10-26 11:30;152,05
2017-10-26 11:45;154,65
2017-10-26 12:00;151,85
2017-10-26 12:15;153,8
2017-10-26 12:30;158,95
2017-10-26 12:45;157,95
2017-10-26 13:00;155,8
2017-10-26 13:15;164,55
2017-10-26 13:30;160,25
2017-10-26 13:45;158,35
2017-10-26 14:00;156,1
2017-10-26 14:15;154,9
2017-10-26 14:30;155,15
2017-10-26 14:45;152,7
2017-10-26 15:00;153
2017-10-26 15:15;147,3
2017-10-26 15:30;146,9
2017-10-26 15:45;145,05
2017-10-26 16:00;142,5
2017-10-26 16:15;141,05
2017-10-26 16:30;134,2
2017-10-26 16:45;132,6
2017-10-26 17:00;131,3
2017-10-26 17:15;122,1
2017-10-26 17:30;123,35
2017-10-26 17:45;123,65
2017-10-26 18:00;120,3
2017-10-26 18:15;119,7
2017-10-26 18:30;115,4
2017-10-26 18:45;117,75
2017-10-26 19:00;121,1
2017-10-26 19:15;114,25
2017-10-26 19:30;113,35
2017-10-26 19:45;112,55
2017-10-26 20:00;113,15
2017-10-26 20:15;107,25
2017-10-26 20:30;104,75
2017-10-26 20:45;101,9
2017-10-26 21:00;99,55
2017-10-26 21:15;95
2017-10-26 21:30;94,4
2017-10-26 21:45;89
2017-10-26 22:00;91
2017-10-26 22:15;87,9
2017-10-26 22:30;86,6
2017-10-26 22:45;84,95
2017-10-26 23:00;81,65
2017-10-26 23:15;80,6
2017-10-26 23:30;80,45
2017-10-26 23:45;78,55
2017-10-27 00:00;77,3
2017-10-27 00:15;79,25
2017-10-27 00:30;76,95
2017-10-27 00:45;79,35
2017-10-27 01:00;76,15
2017-10-27 01:15;76,6
2017-10-27 01:30;77,8
2017-10-27 01:45;76,75
2017-10-27 02:00;76,45
2017-10-27 02:15;79,05
2017-10-27 02:30;76,4
2017-10-27 02:45;77,5
2017-10-27 03:00;77,1
2017-10-27 03:15;76
2017-10-27 03:30;77,35
2017-10-27 03:45;75,4
2017-10-27 04:00;77,1
2017-10-27 04:15;76,9
2017-10-27 04:30;74,7
2017-10-27 04:45;75,65
2017-10-27 05:00;76,2
2017-10-27 05:15;78,5
2017-10-27 05:30;80
2017-10-27 05:45;78,95
2017-10-27 06:00;80,4
2017-10-27 06:15;81
2017-10-27 06:30;82,05
2017-10-27 06:45;84,4
2017-10-27 07:00;84,55
2017-10-27 07:15;84,8
2017-10-27 07:30;86,55
2017-10-27 07:45;89,5
2017-10-27 08:00;89,15
2017-10-27 08:15;89,9
2017-10-27 08:30;96,1
2017-10-27 08:45;102,05
2017-10-27 09:00;106,35
2017-10-27 09:15;108,75
2017-10-27 09:30;111,25
2017-10-27 09:45;115,05
2017-10-27 10:00;114,4
2017-10-27 10:15;121,65
2017-10-27 10:30;131,65
2017-10-27 10:45;128,85
2017-10-27 11:00;135,45
2017-10-27 11:15;147,2
2017-10-27 11:30;147,15
2017-10-27 11:45;144,3
2017-10-27 12:00;144,9
2017-10-27 12:15;145,05
2017-10-27 12:30;140,4
2017-10-27 12:45;145,95
2017-10-27 13:00;145
2017-10-27 13:15;144,8
2017-10-27 13:30;145,05
2017-10-27 13:45;144,6
2017-10-27 14:00;142,5
2017-10-27 14:15;141,8
2017-10-27 14:30;140,5
2017-10-27 14:45;137,2
2017-10-27 15:00;133,9
2017-10-27 15:15;130,65
2017-10-27 15:30;134,1
2017-10-27 15:45;128,5
2017-10-27 16:00;123,9
2017-10-27 16:15;124,2
2017-10-27 16:30;120,85
2017-10-27 16:45;118,6
2017-10-27 17:00;113,8
2017-10-27 17:15;107,55
2017-10-27 17:30;107,6
2017-10-27 17:45;113,05
2017-10-27 18:00;109,6
2017-10-27 18:15;105,7
2017-10-27 18:30;104,25
2017-10-27 18:45;107,9
2017-10-27 19:00;111,7
2017-10-27 19:15;112,1
2017-10-27 19:30;109,6
2017-10-27 19:45;105,6
2017-10-27 20:00;103,7
2017-10-27 20:15;100,65
2017-10-27 20:30;97,25
2017-10-27 20:45;96,8
2017-10-27 21:00;93,1
2017-10-27 21:15;89,6
2017-10-27 21:30;89,15
2017-10-27 21:45;85,9
2017-10-27 22:00;87,35
2017-10-27 22:15;81,55
2017-10-27 22:30;84,9
2017-10-27 22:45;77,2
2017-10-27 23:00;77,1
2017-10-27 23:15;78,6
2017-10-27 23:30;75,65
2017-10-27 23:45;76,25
2017-10-28 00:00;74,05
2017-10-28 00:15;75,05
2017-10-28 00:30;73,35
2017-10-28 00:45;76,5
2017-10-28 01:00;73,4
2017-10-28 01:15;77,35
2017-10-28 01:30;78,15
2017-10-28 01:45;76,8
2017-10-28 02:00;78,1
2017-10-28 02:15;75,95
2017-10-28 02:30;77,85
2017-10-28 02:45;75,25
2017-10-28 03:00;76,65
2017-10-28 03:15;75
2017-10-28 03:30;76,15
2017-10-28 03:45;76,55
2017-10-28 04:00;76
2017-10-28 04:15;78,1
2017-10-28 04:30;75,25
2017-10-28 04:45;76,15
2017-10-28 05:00;76
2017-10-28 05:15;75,7
2017-10-28 05:30;77,9
2017-10-28 05:45;77,9
2017-10-28 06:00;79,1
2017-10-28 06:15;80,7
2017-10-28 06:30;81,35
2017-10-28 06:45;75,7
2017-10-28 07:00;77,15
2017-10-28 07:15;73,85
2017-10-28 07:30;71,1
2017-10-28 07:45;69
2017-10-28 08:00;65,3
2017-10-28 08:15;66,35
2017-10-28 08:30;65,15
2017-10-28 08:45;67,25
2017-10-28 09:00;67,75
2017-10-28 09:15;65,6
2017-10-28 09:30;70,95
2017-10-28 09:45;68,1
2017-10-28 10:00;69,8
2017-10-28 10:15;69,3
2017-10-28 10:30;69,15
2017-10-28 10:45;73,95
2017-10-28 11:00;69,55
2017-10-28 11:15;70,4
2017-10-28 11:30;70,55
2017-10-28 11:45;68,3
2017-10-28 12:00;69,05
2017-10-28 12:15;66,75
2017-10-28 12:30;65,25
2017-10-28 12:45;67,55
2017-10-28 13:00;67,7
2017-10-28 13:15;68,5
2017-10-28 13:30;69,9
2017-10-28 13:45;69,55
2017-10-28 14:00;68,2
2017-10-28 14:15;65,25
2017-10-28 14:30;68
2017-10-28 14:45;71,8
2017-10-28 15:00;68,75
2017-10-28 15:15;71,9
2017-10-28 15:30;70,9
2017-10-28 15:45;75,4
2017-10-28 16:00;73,75
2017-10-28 16:15;74,75
2017-10-28 16:30;78,3
2017-10-28 16:45;76,05
2017-10-28 17:00;77,6
2017-10-28 17:15;75,65
2017-10-28 17:30;77,3
2017-10-28 17:45;78,15
2017-10-28 18:00;76,6
2017-10-28 18:15;79,4
2017-10-28 18:30;75
2017-10-28 18:45;80,2
2017-10-28 19:00;87,3
2017-10-28 19:15;83,8
2017-10-28 19:30;88,65
2017-10-28 19:45;87,3
2017-10-28 20:00;86,6
2017-10-28 20:15;86,75
2017-10-28 20:30;85,5
2017-10-28 20:45;86,2
2017-10-28 21:00;79,45
2017-10-28 21:15;80,9
2017-10-28 21:30;80,05
2017-10-28 21:45;79,55
2017-10-28 22:00;76,05
2017-10-28 22:15;77,7
2017-10-28 22:30;77,75
2017-10-28 22:45;77,75
2017-10-28 23:00;75,1
2017-10-28 23:15;73,15
2017-10-28 23:30;73,15
2017-10-28 23:45;70,75
2017-10-29 00:00;71,05
2017-10-29 00:15;72,9
2017-10-29 00:30;71,55
2017-10-29 00:45;73,4
2017-10-29 01:00;71,5
2017-10-29 01:15;72,85
2017-10-29 01:30;74,3
2017-10-29 01:45;72,25
2017-10-29 02:00;74
2017-10-29 02:15;72,15
2017-10-29 02:30;74,15
2017-10-29 02:45;74,75
2017-10-29 03:00;72,25
2017-10-29 03:15;73,35
2017-10-29 03:15;71,3
2017-10-29 03:30;72,35
2017-10-29 03:30;73,8
2017-10-29 03:45;73,4
2017-10-29 03:45;71,4
2017-10-29 04:00;73,2
2017-10-29 04:00;74
2017-10-29 04:15;70,9
2017-10-29 04:30;71,65
2017-10-29 04:45;72,6
2017-10-29 05:00;71,3
2017-10-29 05:15;71,75
2017-10-29 05:30;69,95
2017-10-29 05:45;71,2
2017-10-29 06:00;74,55
2017-10-29 06:15;74,3
2017-10-29 06:30;77,55
2017-10-29 06:45;75
2017-10-29 07:00;71,3
2017-10-29 07:15;70,95
2017-10-29 07:30;73,25
2017-10-29 07:45;66,85
2017-10-29 08:00;68,3
2017-10-29 08:15;64,05
2017-10-29 08:30;64,25
2017-10-29 08:45;65,65
2017-10-29 09:00;64,25
2017-10-29 09:15;65,65
2017-10-29 09:30;66,1
2017-10-29 09:45;68,15
2017-10-29 10:00;66,85
2017-10-29 10:15;66,1
2017-10-29 10:30;68
2017-10-29 10:45;67,15
2017-10-29 11:00;71,35
2017-10-29 11:15;72,5
2017-10-29 11:30;72
2017-10-29 11:45;74,5
2017-10-29 12:00;72,3
2017-10-29 12:15;71,9
2017-10-29 12:30;71,35
2017-10-29 12:45;69,55
2017-10-29 13:00;70,55
2017-10-29 13:15;72,95
2017-10-29 13:30;75,4
2017-10-29 13:45;74,8
2017-10-29 14:00;71,9
2017-10-29 14:15;71,8
2017-10-29 14:30;73,1
2017-10-29 14:45;68,55
2017-10-29 15:00;70,9
2017-10-29 15:15;72,95
2017-10-29 15:30;68,6
2017-10-29 15:45;73,2
2017-10-29 16:00;71,8
2017-10-29 16:15;72,95
2017-10-29 16:30;71,4
2017-10-29 16:45;71,4
2017-10-29 17:00;74,65
2017-10-29 17:15;74,15
2017-10-29 17:30;79,85
2017-10-29 17:45;85,05
2017-10-29 18:00;87,5
2017-10-29 18:15;84,95
2017-10-29 18:30;82,55
2017-10-29 18:45;79,9
2017-10-29 19:00;82,4
2017-10-29 19:15;85,5
2017-10-29 19:30;85,75
2017-10-29 19:45;86,1
2017-10-29 20:00;87,1
2017-10-29 20:15;84,65
2017-10-29 20:30;84,95
2017-10-29 20:45;83,5
2017-10-29 21:00;83,35
2017-10-29 21:15;80
2017-10-29 21:30;82,45
2017-10-29 21:45;82,2
2017-10-29 22:00;80,15
2017-10-29 22:15;77,25
2017-10-29 22:30;77,7
2017-10-29 22:45;77,25
2017-10-29 23:00;76,7
2017-10-29 23:15;75,05
2017-10-29 23:30;73,7
2017-10-29 23:45;72,65

